Location: Moscow
(38.8570°N, 84.2291°W)
Time: 19:50:28
(UTC+00:00)

Timation 1 Rocket - Pass Details

Date: 15 November 2025
Orbit: 898 x 905 km, 70.0° (Epoch: 11 December)

Event Time Altitude Azimuth Distance (km) Brightness Sun altitude
Rises 23:36:59 0° 339° (NNW) 3,524 7.5 -14.5°
Reaches altitude 10° 23:39:32 10° 344° (NNW) 2,581 6.8 -15.0°
Maximum altitude 23:45:24 56° 62° (ENE) 1,063 4.4 -16.1°
Drops below altitude 10° 23:51:13 10° 141° (SE) 2,571 6.4 -17.2°
Sets 23:53:46 0° 145° (SE) 3,509 7.2 -17.7°
